Starlink 11618

operational
NORAD ID: 63185 Int'l Des: 2025-048 Owner: SPXS Country: US Constellation: starlink
LEOCIRCULAR

About Starlink 11618

Description loading...

Live Position

Loading 3D Globe...

Upcoming Passes

Altitude History

Altitude vs Time

uPlot chart will show altitude changes over time

Two-Line Element Set

1 63185U 25048C 25303.28143085 .00392763 00000-0 29144-2 0 9998
2 63185 42.9994 25.7496 0001540 266.2670 93.8022 15.70902032 38008
Epoch: Oct 30, 2025 • Age: 14 hours

Current Status

Altitude 358.5 km
Velocity 7.70 km/s
Sub-Earth Point 40.22°N, 144.13°E
Launch Date Mar 13, 2025
Age 0.6 years
Type internet

Technical Details

Classification Payload
Mass 960.00 kg
Dry Mass 910.00 kg
Total Mass 960.00 kg
Length 0.30 m
Diameter 4.10 m
Span 29.00 m
Shape Box + pan
Manufacturer SPXS
Bus Type Starlink V2MD
Phase Status In Orbit
Owner/State SPXS/US

Large Constellations

Loading constellations...